Hourly Data Report for July 26, 2021

CARIBOU POINT (AUT)
NOVA SCOTIA
Current Station Operator: ECCC - MSC

45°46'00.000" N
62°41'00.000" W
2.40 m
8200774
71415
WBK

Download Data

Hourly Data (July 2021)
Hourly Data Report for July 26, 2021
TIME
LST
Temp Definition
°C
Dew Point Definition
°C
Rel Hum Definition
%
Precip. Amount Definition
mm

Wind Dir Definition
10's deg

Wind Spd Definition
km/h
Visibility Definition
km
Stn Press Definition
kPa
Hmdx Definition


Wind Chill Definition


Weather Definition


00:00 16.3 14.2 87 0.0 19 16   101.34     LegendNANA
01:00 15.8 14.0 89 0.0 19 11   101.32     LegendNANA
02:00 15.7 14.3 91 0.0 20 14   101.28     LegendNANA
03:00 15.8 14.3 91 0.0 19 14   101.26     LegendNANA
04:00 16.1 14.7 92 0.0 18 18   101.19     LegendNANA
05:00 16.6 15.5 93 0.0 18 18   101.20     LegendNANA
06:00 16.9 16.1 95 1.1 17 15   101.16     LegendNANA
07:00 17.9 17.0 94 0.0 19 20   101.13     LegendNANA
08:00 18.5 17.1 92 0.4 19 19   101.14     LegendNANA
09:00 19.6 17.8 89 0.0 19 16   101.10     LegendNANA
10:00 20.2 17.6 85 0.0 20 15   101.08 26   LegendNANA
11:00 20.8 17.9 83 0.0 21 12   101.05 27   LegendNANA
12:00 21.1 18.1 83 LegendMM 21 8   101.00 27   LegendNANA
13:00 20.8 18.3 85 0.0 20 10   100.96 27   LegendNANA
14:00 22.1 18.4 80 0.0 21 9   100.93 28   LegendNANA
15:00 22.6 18.8 79 0.0 21 8   100.91 29   LegendNANA
16:00 23.7 19.5 77 0.0 20 6   100.86 31   LegendNANA
17:00 20.3 18.4 89 0.0 4 8   100.87 27   LegendNANA
18:00 20.2 18.3 89 0.0 36 6   100.87 26   LegendNANA
19:00 19.7 18.4 92 0.0 12 2   100.88     LegendNANA
20:00 18.5 17.6 95 0.0 14 6   100.93     LegendNANA
21:00 18.0 17.3 96 0.0 14 11   100.93     LegendNANA
22:00 18.8 18.1 96 0.0 18 12   100.91     LegendNANA
23:00 19.2 18.5 96 0.0 19 13   100.90     LegendNANA

Notes on Data Quality.

Legend

  • E = Estimated
  • M = Missing
  • NA = Not Available*
  • [empty] = Indicates an unobserved value
Date modified: